BCS5MR EKCH-EDDL

Flight info

Callsign BCS5MR
Flight time N/A
Altitude 36000
Route NEXEN T503 GIMRU DCT MICOS DCT KEGAB DCT DENOL T851 HALME HALME1A
Aircraft B738/M-SDE2E3FGHIRWXY/LB1

Departure

Time 2026-05-04 20:27
Airport Copenhagen Kastrup Airport (EKCH)

Arrival

Time N/A
Airport Düsseldorf Airport (EDDL)
Time Latitude Longitude Altitude Speed Heading
2026-05-04 19:43 55.61957 12.67120 23 ft 0 kts 79°
2026-05-04 20:01 55.61957 12.67121 23 ft 0 kts 79°
2026-05-04 20:08 55.61957 12.67122 23 ft 0 kts 79°
2026-05-04 20:08 55.61957 12.67123 23 ft 0 kts 79°
2026-05-04 20:08 55.61960 12.67125 23 ft 0 kts 37°
2026-05-04 20:09 55.61966 12.67116 23 ft 0 kts 315°
2026-05-04 20:09 55.61967 12.67114 23 ft 0 kts 307°
2026-05-04 20:09 55.61967 12.67100 27 ft 4 kts 276°
2026-05-04 20:09 55.61972 12.67008 24 ft 9 kts 276°
2026-05-04 20:10 55.61967 12.66954 24 ft 5 kts 227°
2026-05-04 20:10 55.61955 12.66950 23 ft 0 kts 170°
2026-05-04 20:16 55.61954 12.66950 23 ft 1 kts 169°
2026-05-04 20:16 55.61920 12.66950 23 ft 8 kts 196°
2026-05-04 20:16 55.61887 12.66861 23 ft 10 kts 255°
2026-05-04 20:16 55.61872 12.66726 23 ft 12 kts 259°
2026-05-04 20:17 55.61855 12.66574 23 ft 14 kts 258°
2026-05-04 20:17 55.61835 12.66443 25 ft 9 kts 235°
2026-05-04 20:17 55.61771 12.66406 23 ft 11 kts 192°
2026-05-04 20:17 55.61697 12.66342 24 ft 13 kts 219°
2026-05-04 20:18 55.61645 12.66198 26 ft 14 kts 251°
2026-05-04 20:18 55.61646 12.66031 25 ft 14 kts 287°
2026-05-04 20:18 55.61686 12.65892 27 ft 9 kts 302°
2026-05-04 20:18 55.61708 12.65831 28 ft 0 kts 303°
2026-05-04 20:21 55.61732 12.65766 28 ft 19 kts 302°
2026-05-04 20:21 55.61838 12.65477 22 ft 27 kts 303°
2026-05-04 20:21 55.61975 12.65108 22 ft 8 kts 303°
2026-05-04 20:22 55.61982 12.65091 22 ft 0 kts 303°
2026-05-04 20:22 55.61991 12.65065 23 ft 8 kts 303°
2026-05-04 20:22 55.62027 12.64967 23 ft 10 kts 303°
2026-05-04 20:23 55.62067 12.64861 27 ft 10 kts 303°
2026-05-04 20:23 55.62096 12.64782 25 ft 0 kts 304°
2026-05-04 20:23 55.62104 12.64762 25 ft 4 kts 304°
2026-05-04 20:23 55.62119 12.64692 25 ft 9 kts 266°
2026-05-04 20:24 55.62069 12.64610 25 ft 11 kts 215°
2026-05-04 20:24 55.62003 12.64530 23 ft 11 kts 214°
2026-05-04 20:24 55.61958 12.64426 23 ft 11 kts 259°
2026-05-04 20:24 55.61943 12.64289 23 ft 12 kts 259°
2026-05-04 20:25 55.61929 12.64156 23 ft 10 kts 256°
2026-05-04 20:25 55.61882 12.64080 23 ft 10 kts 194°
2026-05-04 20:25 55.61810 12.64078 27 ft 11 kts 177°
2026-05-04 20:25 55.61734 12.64084 24 ft 10 kts 178°
2026-05-04 20:26 55.61673 12.64089 28 ft 8 kts 176°
2026-05-04 20:26 55.61621 12.64062 26 ft 12 kts 218°
2026-05-04 20:26 55.61415 12.63744 26 ft 74 kts 221°
2026-05-04 20:26 55.60859 12.62884 27 ft 136 kts 221°
2026-05-04 20:27 55.60056 12.61617 271 ft 161 kts 223°
2026-05-04 20:27 55.59227 12.60301 1024 ft 162 kts 224°
2026-05-04 20:27 55.58350 12.58962 1674 ft 169 kts 224°
2026-05-04 20:27 55.57411 12.57546 2162 ft 192 kts 223°
2026-05-04 20:28 55.56301 12.55957 2416 ft 219 kts 219°
2026-05-04 20:28 55.55000 12.54334 2766 ft 237 kts 217°
2026-05-04 20:28 55.53579 12.52606 3136 ft 255 kts 217°
2026-05-04 20:28 55.52103 12.50819 3995 ft 257 kts 217°
2026-05-04 20:29 55.50636 12.49042 4954 ft 256 kts 217°
2026-05-04 20:29 55.49164 12.47256 5834 ft 257 kts 217°
2026-05-04 20:29 55.47686 12.45458 6672 ft 259 kts 218°
2026-05-04 20:29 55.46197 12.43644 7456 ft 262 kts 218°
2026-05-04 20:30 55.44689 12.41806 8220 ft 265 kts 218°
2026-05-04 20:30 55.43164 12.39948 8973 ft 268 kts 218°
2026-05-04 20:30 55.41622 12.38070 9752 ft 271 kts 218°
2026-05-04 20:30 55.40058 12.36165 10329 ft 280 kts 218°
2026-05-04 20:31 55.38418 12.34163 10509 ft 303 kts 218°
2026-05-04 20:31 55.36621 12.31972 10691 ft 325 kts 218°
2026-05-04 20:31 55.34698 12.29635 10843 ft 346 kts 218°
2026-05-04 20:31 55.32659 12.27163 11008 ft 364 kts 217°
2026-05-04 20:32 55.30541 12.24602 11361 ft 375 kts 217°
2026-05-04 20:32 55.28373 12.21987 11948 ft 379 kts 217°
2026-05-04 20:32 55.26199 12.19366 12615 ft 380 kts 217°
2026-05-04 20:32 55.24011 12.16728 13277 ft 383 kts 217°
2026-05-04 20:33 55.21810 12.14078 13911 ft 386 kts 217°
2026-05-04 20:33 55.19589 12.11392 14501 ft 389 kts 218°
2026-05-04 20:33 55.17383 12.08613 15067 ft 392 kts 219°
2026-05-04 20:33 55.15199 12.05802 15620 ft 396 kts 219°
2026-05-04 20:34 55.12975 12.02927 16201 ft 400 kts 219°
2026-05-04 20:34 55.10731 12.00033 16771 ft 403 kts 219°
2026-05-04 20:34 55.08461 11.97119 17335 ft 407 kts 219°
2026-05-04 20:34 55.06167 11.94187 17890 ft 410 kts 219°
2026-05-04 20:35 55.03852 11.91236 18412 ft 414 kts 219°
2026-05-04 20:35 55.01519 11.88270 18900 ft 416 kts 219°
2026-05-04 20:35 54.99171 11.85290 19416 ft 418 kts 219°
2026-05-04 20:35 54.96813 11.82304 19907 ft 420 kts 219°
2026-05-04 20:36 54.94440 11.79301 20356 ft 423 kts 219°
2026-05-04 20:36 54.92062 11.76298 20934 ft 422 kts 219°
2026-05-04 20:36 54.89682 11.73295 21425 ft 424 kts 219°
2026-05-04 20:36 54.87293 11.70284 21844 ft 426 kts 219°
2026-05-04 20:37 54.84883 11.67250 22252 ft 429 kts 219°
2026-05-04 20:37 54.82455 11.64201 22668 ft 431 kts 219°
2026-05-04 20:37 54.80020 11.61150 23095 ft 433 kts 219°
2026-05-04 20:37 54.77570 11.58093 23496 ft 435 kts 219°
2026-05-04 20:38 54.75101 11.55023 23831 ft 437 kts 219°
2026-05-04 20:38 54.72632 11.51958 24182 ft 438 kts 219°
2026-05-04 20:38 54.70153 11.48885 24527 ft 438 kts 220°
2026-05-04 20:38 54.67674 11.45814 24904 ft 438 kts 220°
2026-05-04 20:39 54.65232 11.42790 25227 ft 439 kts 220°
2026-05-04 20:39 54.62743 11.39713 25519 ft 441 kts 220°
2026-05-04 20:39 54.60252 11.36637 25869 ft 440 kts 220°
2026-05-04 20:39 54.57764 11.33574 26322 ft 437 kts 220°
2026-05-04 20:40 54.55294 11.30538 26826 ft 434 kts 220°
2026-05-04 20:40 54.52848 11.27544 27322 ft 430 kts 220°
2026-05-04 20:40 54.50410 11.24568 27795 ft 428 kts 220°
2026-05-04 20:40 54.47994 11.21620 28215 ft 426 kts 219°
2026-05-04 20:41 54.45571 11.18667 28593 ft 426 kts 219°
2026-05-04 20:41 54.43157 11.15727 28975 ft 425 kts 219°
2026-05-04 20:41 54.40747 11.12797 29452 ft 423 kts 219°
2026-05-04 20:41 54.38351 11.09889 29942 ft 420 kts 219°
2026-05-04 20:42 54.35969 11.06999 30349 ft 419 kts 219°
2026-05-04 20:42 54.33589 11.04115 30624 ft 420 kts 219°
2026-05-04 20:42 54.31195 11.01220 30872 ft 421 kts 219°
2026-05-04 20:42 54.28790 10.98334 31165 ft 421 kts 219°
2026-05-04 20:43 54.26385 10.95483 31482 ft 421 kts 219°
2026-05-04 20:43 54.23999 10.92671 31737 ft 422 kts 219°
2026-05-04 20:43 54.21581 10.89825 31960 ft 423 kts 219°
2026-05-04 20:43 54.19152 10.86969 32233 ft 423 kts 219°
2026-05-04 20:44 54.16727 10.84120 32558 ft 423 kts 219°
2026-05-04 20:44 54.14309 10.81281 32850 ft 423 kts 219°
2026-05-04 20:44 54.11881 10.78433 33108 ft 424 kts 219°
2026-05-04 20:44 54.09456 10.75591 33377 ft 424 kts 219°
2026-05-04 20:45 54.07025 10.72747 33677 ft 424 kts 219°
2026-05-04 20:45 54.04593 10.69904 33947 ft 424 kts 219°
2026-05-04 20:45 54.02163 10.67069 34155 ft 424 kts 219°
2026-05-04 20:45 53.99722 10.64223 34319 ft 427 kts 219°
2026-05-04 20:46 53.97261 10.61359 34497 ft 428 kts 219°
2026-05-04 20:46 53.94811 10.58512 34739 ft 427 kts 218°
2026-05-04 20:46 53.92360 10.55669 34971 ft 427 kts 218°
2026-05-04 20:46 53.89896 10.52814 35179 ft 428 kts 218°